sat.trackr.live / text

‹ back to catalog

CENTISPACE-2 S5

NORAD 68354 · 2026-060E

PAYLOAD ACTIVE UNKNOWN

§ Identity

Operator
Country
PRC
Launch date
2026-03-22
Launch site
YSLA
Launch vehicle
Mass (kg)
RCS (m²)

External: N2YO · Heavens-Above · Gunter

§ Orbital elements

Epoch: 2026-09-19T00:39:27.625248Z

Period
101.25 min
Inclination
54.9772°
Eccentricity
0.0007252
Mean motion
14.22208988 rev/d
Perigee alt
812.7 km
Apogee alt
823.1 km
Semi-major
7,196.0 km
B*
1.9824e-4
RAAN
31.6034°
Arg perigee
261.2782°
Mean anomaly
98.7372°
Rev number
2,632

§ Raw data

CENTISPACE-2 S51 68354U 26060E   26262.02740307  .00000286  00000+0  19824-3 0  99932 68354  54.9772  31.6034 0007252 261.2782  98.7372 14.22208988 26326

JSON: /api/v1/satellites/68354 · /tle

For live sub-satellite position, see the globe view (requires WebGL).

§ Visibility from observer

Set your observer location to see the next 7 days of passes ≥ 10°. The values pass through the URL so the page stays shareable.

No JS? Fill the form by hand. The geolocation button needs JavaScript.